OK,81,25,686,81,2014-10-01T01:40:00,0,28072013,192787
OK,81,25,686,81,2014-10-01T01:45:00,0,28072456,192787
OK,81,25,686,81,2014-10-01T01:50:00,0,28072905,192787
OK,81,25,686,81,2014-10-01T01:55:00,0,28073352,192787
OK,81,25,686,81,2014-10-01T02:05:00,0,28074118,192787
OK,81,25,686,81,2014-10-01T02:10:00,0,28074567,192787
OK,81,25,686,81,2014-10-01T02:15:00,0,28075007,192787
OK,81,25,686,81,2014-10-01T02:20:00,0,28075456,192787
OK,81,25,686,81,2014-10-01T02:25:00,0,28075905,192787
OK,81,25,686,81,2014-10-01T02:30:00,0,28076288,192787
OK,81,25,686,81,2014-10-01T02:35:00,0,28076737,192787
OK,81,25,686,81,2014-10-01T02:40:00,0,28077186,192787
OK,81,25,686,81,2014-10-01T02:45:00,0,28077635,192787
OK,81,25,686,81,2014-10-01T02:50:00,0,28078038,192787
OK,81,25,686,81,2014-10-01T02:55:00,0,28078487,192787
OK,81,25,686,81,2014-10-01T03:00:00,0,28078932,192787
OK,81,25,686,81,2014-10-01T03:05:00,0,28079380,192787
OK,81,25,686,81,2014-10-01T03:10:00,0,28079823,192787
OK,81,25,686,81,2014-10-01T03:15:00,0,28080272,192787
OK,81,25,686,81,2014-10-01T03:20:00,0,28080606,192787
OK,81,25,686,81,2014-10-01T03:25:00,0,28081055,192787
OK,81,25,686,81,2014-10-01T03:30:00,0,28081504,192787
OK,81,25,686,81,2014-10-01T03:35:00,0,28081951,192787
OK,81,25,686,81,2014-10-01T03:40:00,0,28082400,192787
OK,81,25,686,81,2014-10-01T03:45:00,0,28082833,192787
OK,81,25,686,81,2014-10-01T03:50:00,0,28083265,192787
OK,81,25,686,81,2014-10-01T03:55:00,0,28083714,192787
OK,81,25,686,81,2014-10-01T04:00:00,0,28084163,192787
OK,81,25,686,81,2014-10-01T04:05:00,0,28084604,192787
OK,81,25,686,81,2014-10-01T04:10:00,0,28085029,192787
OK,101,20,686,101,2014-10-01T04:15:00,1,28085478,192787
OK,58,35,686,58,2014-10-01T04:20:00,3,28085923,192787
OK,58,35,686,58,2014-10-01T04:25:00,3,28086372,192787
OK,73,27,686,73,2014-10-01T04:30:00,0,28086814,192787
OK,58,35,686,58,2014-10-01T04:35:00,2,28087263,192787
OK,38,53,686,38,2014-10-01T04:40:00,3,28087708,192787
OK,38,53,686,38,2014-10-01T04:45:00,0,28088157,192787
OK,38,53,686,38,2014-10-01T04:50:00,0,28088581,192787
OK,48,42,686,48,2014-10-01T04:55:00,1,28089030,192787
OK,77,26,686,77,2014-10-01T05:00:00,2,28089460,192787
OK,45,45,686,45,2014-10-01T05:05:00,3,28089909,192787
OK,58,35,686,58,2014-10-01T05:10:00,2,28090358,192787
OK,80,25,686,80,2014-10-01T05:15:00,1,28090702,192787
OK,135,15,686,135,2014-10-01T05:20:00,1,28091151,192787
OK,65,31,686,65,2014-10-01T05:25:00,3,28091600,192787
OK,65,31,686,65,2014-10-01T05:30:00,5,28092017,192787
OK,70,29,686,70,2014-10-01T05:35:00,7,28092466,192787
OK,81,25,686,81,2014-10-01T05:40:00,9,28092910,192787
OK,92,22,686,92,2014-10-01T05:45:00,9,28093351,192787
OK,110,18,686,110,2014-10-01T05:50:00,9,28093782,192787
OK,99,20,686,99,2014-10-01T05:55:00,6,28094231,192787
OK,110,18,686,110,2014-10-01T06:00:00,11,28094642,192787
OK,100,20,686,100,2014-10-01T06:05:00,12,28095087,192787
OK,99,20,686,99,2014-10-01T06:10:00,7,28095534,192787
OK,119,17,686,119,2014-10-01T06:15:00,4,28095983,192787
OK,78,26,686,78,2014-10-01T06:20:00,5,28096396,192787
OK,87,23,686,87,2014-10-01T06:25:00,6,28096845,192787
OK,98,20,686,98,2014-10-01T06:30:00,2,28097279,192787
OK,62,32,686,62,2014-10-01T06:35:00,1,28097728,192787
OK,62,32,686,62,2014-10-01T06:40:00,0,28098177,192787
OK,38,53,686,38,2014-10-01T06:45:00,2,28098614,192787
OK,47,43,686,47,2014-10-01T06:50:00,3,28099058,192787
OK,54,37,686,54,2014-10-01T06:55:00,5,28099506,192787
OK,66,30,686,66,2014-10-01T07:00:00,4,28099849,192787
OK,46,44,686,46,2014-10-01T07:10:00,4,28100605,192787
OK,45,45,686,45,2014-10-01T07:15:00,5,28101054,192787
OK,48,42,686,48,2014-10-01T07:20:00,3,28101425,192787
OK,60,33,686,60,2014-10-01T07:25:00,5,28101874,192787
OK,83,24,686,83,2014-10-01T07:30:00,2,28102310,192787
OK,73,27,686,73,2014-10-01T07:35:00,3,28102759,192787
OK,64,31,686,64,2014-10-01T07:40:00,5,28103186,192787
OK,51,39,686,51,2014-10-01T07:45:00,2,28103633,192787
OK,41,49,686,41,2014-10-01T07:50:00,2,28104078,192787
OK,43,47,686,43,2014-10-01T07:55:00,3,28104523,192787
OK,41,49,686,41,2014-10-01T08:00:00,3,28104964,192787
OK,38,53,686,38,2014-10-01T08:05:00,2,28105409,192787
OK,41,49,686,41,2014-10-01T08:10:00,0,28105849,192787
OK,41,49,686,41,2014-10-01T08:15:00,0,28106298,192787
OK,43,47,686,43,2014-10-01T08:20:00,1,28106735,192787
OK,43,47,686,43,2014-10-01T08:25:00,2,28107141,192787
OK,39,52,686,39,2014-10-01T08:30:00,3,28107573,192787
OK,38,53,686,38,2014-10-01T08:35:00,0,28108022,192787
OK,50,40,686,50,2014-10-01T08:40:00,1,28108461,192787
OK,52,39,686,52,2014-10-01T08:45:00,2,28108910,192787
OK,54,37,686,54,2014-10-01T08:50:00,4,28109338,192787
OK,54,37,686,54,2014-10-01T08:55:00,4,28109787,192787
OK,59,34,686,59,2014-10-01T09:00:00,2,28110130,192787
OK,71,28,686,71,2014-10-01T09:05:00,0,28110579,192787
OK,71,28,686,71,2014-10-01T09:10:00,0,28111002,192787
OK,56,36,686,56,2014-10-01T09:15:00,1,28111451,192787
OK,54,37,686,54,2014-10-01T09:20:00,2,28111880,192787
OK,83,24,686,83,2014-10-01T09:25:00,3,28112329,192787
OK,62,32,686,62,2014-10-01T09:30:00,1,28112670,192787
OK,59,34,686,59,2014-10-01T09:35:00,2,28113119,192787
OK,57,35,686,57,2014-10-01T09:40:00,1,28113543,192787
OK,57,35,686,57,2014-10-01T09:45:00,0,28113992,192787
OK,57,35,686,57,2014-10-01T09:50:00,0,28114424,192787
OK,57,35,686,57,2014-10-01T09:55:00,0,28114872,192787
OK,50,40,686,50,2014-10-01T10:00:00,4,28115227,192787
OK,49,41,686,49,2014-10-01T10:05:00,4,28115676,192787
OK,51,39,686,51,2014-10-01T10:10:00,1,28116088,192787
OK,48,42,686,48,2014-10-01T10:15:00,2,28116537,192787
OK,44,46,686,44,2014-10-01T10:20:00,2,28116945,192787
OK,42,48,686,42,2014-10-01T10:25:00,1,28117394,192787
OK,80,25,686,80,2014-10-01T10:30:00,4,28117819,192787
OK,42,48,686,42,2014-10-01T10:35:00,0,28118268,192787
OK,79,25,686,79,2014-10-01T10:40:00,1,28118713,192787
OK,62,32,686,62,2014-10-01T10:45:00,1,28119160,192787
OK,62,32,686,62,2014-10-01T10:50:00,1,28119604,192787
OK,38,53,686,38,2014-10-01T10:55:00,2,28120052,192787
OK,36,56,686,36,2014-10-01T11:00:00,2,28120500,192787
OK,60,33,686,60,2014-10-01T11:05:00,2,28120949,192787
OK,60,33,686,60,2014-10-01T11:10:00,2,28121332,192787
OK,61,33,686,61,2014-10-01T11:15:00,6,28121781,192787
OK,65,31,686,65,2014-10-01T11:20:00,4,28122219,192787
OK,56,36,686,56,2014-10-01T11:25:00,2,28122668,192787
OK,69,29,686,69,2014-10-01T11:30:00,1,28123109,192787
OK,41,49,686,41,2014-10-01T11:35:00,1,28123558,192787
OK,57,35,686,57,2014-10-01T11:40:00,2,28123990,192787
OK,58,35,686,58,2014-10-01T11:45:00,2,28124439,192787
OK,65,31,686,65,2014-10-01T11:50:00,1,28124841,192787
OK,63,32,686,63,2014-10-01T11:55:00,1,28125290,192787
OK,63,32,686,63,2014-10-01T12:00:00,0,28125719,192787
OK,55,37,686,55,2014-10-01T12:05:00,2,28126168,192787
OK,62,32,686,62,2014-10-01T12:10:00,2,28126520,192787
OK,62,32,686,62,2014-10-01T12:15:00,2,28126969,192787
OK,65,31,686,65,2014-10-01T12:20:00,1,28127418,192787
OK,44,46,686,44,2014-10-01T12:25:00,1,28127867,192787
OK,61,33,686,61,2014-10-01T12:30:00,3,28128295,192787
OK,62,32,686,62,2014-10-01T12:35:00,1,28128744,192787
OK,62,32,686,62,2014-10-01T12:40:00,1,28129179,192787
OK,62,32,686,62,2014-10-01T12:45:00,0,28129628,192787
OK,40,50,686,40,2014-10-01T12:50:00,1,28130062,192787
OK,40,50,686,40,2014-10-01T12:55:00,1,28130511,192787
OK,54,37,686,54,2014-10-01T13:00:00,1,28130939,192787
OK,58,35,686,58,2014-10-01T13:05:00,4,28131388,192787
OK,49,41,686,49,2014-10-01T13:10:00,5,28131825,192787
OK,45,45,686,45,2014-10-01T13:15:00,3,28132274,192787
OK,87,23,686,87,2014-10-01T13:20:00,3,28132712,192787
OK,74,27,686,74,2014-10-01T13:25:00,2,28133159,192787
OK,102,19,686,102,2014-10-01T13:30:00,0,28133597,192787
OK,66,30,686,66,2014-10-01T13:35:00,1,28134046,192787
OK,48,42,686,48,2014-10-01T13:40:00,5,28134485,192787
OK,48,42,686,48,2014-10-01T13:45:00,5,28134934,192787
OK,50,40,686,50,2014-10-01T13:50:00,1,28135353,192787
OK,50,40,686,50,2014-10-01T13:55:00,0,28135802,192787
OK,89,22,686,89,2014-10-01T14:00:00,1,28136239,192787
OK,50,40,686,50,2014-10-01T14:05:00,0,28136688,192787
OK,54,37,686,54,2014-10-01T14:10:00,2,28137128,192787
OK,50,40,686,50,2014-10-01T14:15:00,2,28137577,192787
OK,62,32,686,62,2014-10-01T14:20:00,2,28138011,192787
OK,59,34,686,59,2014-10-01T14:25:00,6,28138460,192787
OK,57,35,686,57,2014-10-01T14:30:00,5,28138888,192787
OK,44,46,686,44,2014-10-01T14:35:00,2,28139337,192787
OK,55,37,686,55,2014-10-01T14:40:00,4,28139748,192787
OK,52,39,686,52,2014-10-01T14:45:00,3,28140197,192787
OK,42,48,686,42,2014-10-01T14:50:00,1,28140639,192787
OK,88,23,686,88,2014-10-01T15:00:00,1,28141514,192787
OK,86,23,686,86,2014-10-01T15:05:00,1,28141963,192787
OK,91,22,686,91,2014-10-01T15:10:00,1,28142391,192787
OK,91,22,686,91,2014-10-01T15:15:00,0,28142840,192787
OK,74,27,686,74,2014-10-01T15:20:00,1,28143267,192787
OK,65,31,686,65,2014-10-01T15:25:00,1,28143716,192787
OK,88,23,686,88,2014-10-01T15:30:00,1,28144164,192787
OK,88,23,686,88,2014-10-01T15:35:00,0,28144613,192787
OK,39,52,686,39,2014-10-01T15:40:00,3,28145034,192787
OK,60,33,686,60,2014-10-01T15:45:00,4,28145448,192787
OK,66,30,686,66,2014-10-01T15:50:00,2,28145897,192787
OK,48,42,686,48,2014-10-01T15:55:00,0,28146346,192787
OK,48,42,686,48,2014-10-01T16:00:00,0,28146795,192787
OK,48,42,686,48,2014-10-01T16:05:00,0,28147203,192787
OK,48,42,686,48,2014-10-01T16:10:00,0,28147647,192787
OK,48,42,686,48,2014-10-01T16:15:00,0,28148096,192787
OK,73,27,686,73,2014-10-01T16:20:00,1,28148497,192787
OK,89,22,686,89,2014-10-01T16:25:00,1,28148946,192787
OK,89,22,686,89,2014-10-01T16:30:00,1,28149385,192787
OK,38,53,686,38,2014-10-01T16:35:00,2,28149834,192787
OK,41,49,686,41,2014-10-01T16:40:00,5,28150260,192787
OK,59,34,686,59,2014-10-01T16:45:00,2,28150709,192787
OK,59,34,686,59,2014-10-01T16:50:00,2,28151127,192787
OK,67,30,686,67,2014-10-01T16:55:00,1,28151576,192787
OK,88,23,686,88,2014-10-01T17:05:00,3,28152025,192787
OK,64,31,686,64,2014-10-01T17:10:00,2,28152474,192787
OK,40,50,686,40,2014-10-01T17:15:00,0,28152920,192787
OK,47,43,686,47,2014-10-01T17:20:00,1,28153367,192787
OK,48,42,686,48,2014-10-01T17:25:00,2,28153816,192787
OK,48,42,686,48,2014-10-01T17:30:00,0,28154226,192787
OK,48,42,686,48,2014-10-01T17:35:00,0,28154675,192787
OK,48,42,686,48,2014-10-01T17:40:00,0,28155117,192787
OK,48,42,686,48,2014-10-01T17:45:00,0,28155565,192787
OK,43,47,686,43,2014-10-01T17:50:00,1,28155983,192787
OK,43,47,686,43,2014-10-01T17:55:00,1,28156432,192787
OK,43,47,686,43,2014-10-01T18:00:00,0,28156880,192787
OK,43,47,686,43,2014-10-01T18:05:00,0,28157319,192787
OK,43,47,686,43,2014-10-01T18:10:00,0,28157749,192787
OK,43,47,686,43,2014-10-01T18:15:00,0,28158197,192787
OK,43,47,686,43,2014-10-01T18:20:00,0,28158641,192787
OK,43,47,686,43,2014-10-01T18:25:00,0,28159086,192787
OK,43,47,686,43,2014-10-01T18:35:00,0,28159868,192787
OK,36,56,686,36,2014-10-01T18:40:00,1,28160317,192787
OK,36,56,686,36,2014-10-01T18:45:00,0,28160766,192787
OK,36,56,686,36,2014-10-01T18:50:00,0,28161204,192787
OK,36,56,686,36,2014-10-01T18:55:00,0,28161653,192787
OK,36,56,686,36,2014-10-01T19:00:00,0,28162070,192787
OK,36,56,686,36,2014-10-01T19:05:00,0,28162519,192787
OK,36,56,686,36,2014-10-01T19:10:00,0,28162913,192787
OK,36,56,686,36,2014-10-01T19:15:00,0,28163352,192787
OK,36,56,686,36,2014-10-01T19:20:00,1,28163800,192787
OK,36,56,686,36,2014-10-01T19:25:00,0,28164249,192787
OK,50,40,686,50,2014-10-01T19:30:00,2,28164680,192787
OK,50,40,686,50,2014-10-01T19:35:00,2,28165129,192787
OK,54,37,686,54,2014-10-01T19:40:00,0,28165554,192787
OK,54,37,686,54,2014-10-01T19:45:00,0,28166002,192787
OK,54,37,686,54,2014-10-01T19:50:00,0,28166438,192787
OK,67,30,686,67,2014-10-01T19:55:00,1,28166805,192787
OK,67,30,686,67,2014-10-01T20:00:00,0,28167254,192787
OK,67,30,686,67,2014-10-01T20:05:00,0,28167683,192787
OK,67,30,686,67,2014-10-01T20:10:00,0,28168116,192787
OK,67,30,686,67,2014-10-01T20:15:00,0,28168565,192787
OK,67,30,686,67,2014-10-01T20:20:00,0,28169010,192787
OK,62,32,686,62,2014-10-01T20:25:00,1,28169459,192787
OK,62,32,686,62,2014-10-01T20:30:00,1,28169907,192787
OK,62,32,686,62,2014-10-01T20:35:00,0,28170333,192787
OK,62,32,686,62,2014-10-01T20:40:00,0,28170778,192787
OK,62,32,686,62,2014-10-01T20:45:00,0,28171226,192787
OK,62,32,686,62,2014-10-01T20:50:00,0,28171663,192787
OK,50,40,686,50,2014-10-01T20:55:00,0,28172109,192787
OK,50,40,686,50,2014-10-01T21:00:00,0,28172557,192787
OK,50,40,686,50,2014-10-01T21:05:00,0,28173003,192787
OK,50,40,686,50,2014-10-01T21:10:00,0,28173449,192787
OK,65,31,686,65,2014-10-01T21:15:00,1,28173898,192787
OK,65,31,686,65,2014-10-01T21:20:00,0,28174339,192787
OK,65,31,686,65,2014-10-01T21:25:00,0,28174788,192787
OK,65,31,686,65,2014-10-01T21:35:00,0,28175610,192787
OK,65,31,686,65,2014-10-01T21:40:00,0,28176059,192787
OK,65,31,686,65,2014-10-01T21:45:00,0,28176508,192787
OK,65,31,686,65,2014-10-01T21:50:00,0,28176957,192787
OK,65,31,686,65,2014-10-01T21:55:00,0,28177313,192787
OK,65,31,686,65,2014-10-01T22:00:00,0,28177753,192787
OK,65,31,686,65,2014-10-01T22:05:00,0,28178199,192787
OK,65,31,686,65,2014-10-01T22:10:00,0,28178648,192787
OK,65,31,686,65,2014-10-01T22:15:00,0,28179095,192787
OK,65,31,686,65,2014-10-01T22:20:00,0,28179529,192787
OK,65,31,686,65,2014-10-01T22:25:00,0,28179972,192787
OK,65,31,686,65,2014-10-01T22:30:00,0,28180419,192787
OK,65,31,686,65,2014-10-01T22:35:00,0,28180817,192787
OK,65,31,686,65,2014-10-01T22:40:00,0,28181266,192787
OK,65,31,686,65,2014-10-01T22:45:00,0,28181690,192787
OK,65,31,686,65,2014-10-01T22:50:00,0,28182138,192787
OK,65,31,686,65,2014-10-01T22:55:00,0,28182585,192787
OK,65,31,686,65,2014-10-01T23:00:00,0,28183034,192787
OK,65,31,686,65,2014-10-01T23:05:00,0,28183451,192787
OK,65,31,686,65,2014-10-01T23:10:00,0,28183884,192787
OK,65,31,686,65,2014-10-01T23:15:00,0,28184329,192787
OK,65,31,686,65,2014-10-01T23:20:00,0,28184778,192787
OK,65,31,686,65,2014-10-01T23:25:00,0,28185213,192787
OK,65,31,686,65,2014-10-01T23:30:00,0,28185661,192787
OK,65,31,686,65,2014-10-01T23:40:00,0,28186484,192787
OK,65,31,686,65,2014-10-01T23:45:00,0,28187324,192787
OK,65,31,686,65,2014-10-01T23:50:00,0,28187773,192787
OK,65,31,686,65,2014-10-01T23:55:00,0,28188220,192787
OK,65,31,686,65,2014-10-02T00:00:00,0,28188657,192787
OK,65,31,686,65,2014-10-02T00:10:00,0,28189099,192787
OK,65,31,686,65,2014-10-02T00:15:00,0,28189548,192787
OK,65,31,686,65,2014-10-02T00:20:00,0,28189970,192787
OK,65,31,686,65,2014-10-02T00:25:00,0,28190414,192787
OK,65,31,686,65,2014-10-02T00:30:00,0,28190772,192787
OK,65,31,686,65,2014-10-02T00:35:00,0,28191221,192787
OK,65,31,686,65,2014-10-02T00:45:00,0,28191976,192787
OK,65,31,686,65,2014-10-02T00:50:00,0,28192425,192787
OK,65,31,686,65,2014-10-02T00:55:00,0,28192858,192787
OK,65,31,686,65,2014-10-02T01:00:00,0,28193277,192787
OK,65,31,686,65,2014-10-02T01:05:00,0,28193669,192787
OK,65,31,686,65,2014-10-02T01:10:00,0,28194118,192787
OK,65,31,686,65,2014-10-02T01:15:00,0,28194567,192787
OK,65,31,686,65,2014-10-02T01:20:00,0,28195006,192787
OK,65,31,686,65,2014-10-02T01:25:00,0,28195252,192787
OK,65,31,686,65,2014-10-02T01:30:00,0,28195701,192787
OK,65,31,686,65,2014-10-02T01:35:00,0,28196150,192787
OK,65,31,686,65,2014-10-02T01:40:00,0,28196434,192787
OK,65,31,686,65,2014-10-02T01:45:00,0,28196883,192787
OK,65,31,686,65,2014-10-02T01:50:00,0,28197306,192787
OK,65,31,686,65,2014-10-02T01:55:00,0,28197755,192787
OK,65,31,686,65,2014-10-02T02:00:00,0,28198203,192787
OK,65,31,686,65,2014-10-02T02:05:00,0,28198651,192787
OK,65,31,686,65,2014-10-02T02:10:00,0,28199100,192787
OK,65,31,686,65,2014-10-02T02:15:00,0,28199472,192787
OK,65,31,686,65,2014-10-02T02:20:00,0,28199914,192787
OK,65,31,686,65,2014-10-02T02:25:00,0,28200356,192787
OK,65,31,686,65,2014-10-02T02:30:00,0,28200799,192787
OK,65,31,686,65,2014-10-02T02:35:00,0,28201248,192787
OK,65,31,686,65,2014-10-02T02:45:00,0,28201679,192787
OK,65,31,686,65,2014-10-02T02:50:00,0,28202128,192787
OK,65,31,686,65,2014-10-02T02:55:00,0,28202577,192787
OK,65,31,686,65,2014-10-02T03:00:00,0,28203019,192787
OK,65,31,686,65,2014-10-02T03:05:00,0,28203467,192787
OK,65,31,686,65,2014-10-02T03:15:00,0,28203902,192787
OK,65,31,686,65,2014-10-02T03:30:00,0,28204351,192787
OK,65,31,686,65,2014-10-02T03:35:00,0,28204800,192787
OK,65,31,686,65,2014-10-02T03:40:00,0,28205249,192787
OK,65,31,686,65,2014-10-02T03:45:00,0,28205677,192787
OK,65,31,686,65,2014-10-02T03:50:00,0,28206104,192787
OK,65,31,686,65,2014-10-02T03:55:00,0,28206507,192787
OK,65,31,686,65,2014-10-02T04:00:00,0,28206956,192787
OK,65,31,686,65,2014-10-02T04:05:00,0,28207405,192787
OK,65,31,686,65,2014-10-02T04:10:00,0,28207824,192787
OK,65,31,686,65,2014-10-02T04:15:00,0,28208273,192787
OK,65,31,686,65,2014-10-02T04:20:00,0,28208700,192787
OK,65,31,686,65,2014-10-02T04:25:00,0,28209149,192787
OK,66,30,686,66,2014-10-02T04:30:00,2,28209587,192787
OK,66,30,686,66,2014-10-02T04:35:00,0,28210036,192787
OK,66,30,686,66,2014-10-02T04:40:00,0,28210459,192787
OK,66,30,686,66,2014-10-02T04:45:00,0,28210908,192787
OK,66,30,686,66,2014-10-02T04:50:00,0,28211333,192787
OK,51,39,686,51,2014-10-02T04:55:00,5,28211777,192787
OK,77,26,686,77,2014-10-02T05:00:00,2,28212155,192787
OK,115,17,686,115,2014-10-02T05:05:00,1,28212604,192787
OK,115,17,686,115,2014-10-02T05:10:00,0,28213033,192787
OK,71,28,686,71,2014-10-02T05:15:00,1,28213482,192787
OK,71,28,686,71,2014-10-02T05:20:00,0,28213920,192787
OK,149,13,686,149,2014-10-02T05:25:00,5,28214369,192787
OK,68,29,686,68,2014-10-02T05:30:00,1,28214782,192787
OK,68,29,686,68,2014-10-02T05:35:00,0,28215231,192787
OK,49,41,686,49,2014-10-02T05:40:00,4,28215647,192787
OK,56,36,686,56,2014-10-02T05:45:00,1,28216096,192787
OK,56,36,686,56,2014-10-02T05:50:00,0,28216435,192787
OK,71,28,686,71,2014-10-02T05:55:00,4,28216875,192787
OK,55,37,686,55,2014-10-02T06:00:00,4,28217322,192787
OK,73,27,686,73,2014-10-02T06:05:00,9,28217771,192787
OK,85,23,686,85,2014-10-02T06:10:00,1,28218210,192787
OK,184,11,686,184,2014-10-02T06:15:00,4,28218659,192787
OK,154,13,686,154,2014-10-02T06:20:00,3,28219079,192787
OK,90,22,686,90,2014-10-02T06:25:00,2,28219528,192787
OK,51,39,686,51,2014-10-02T06:30:00,1,28219901,192787
OK,43,47,686,43,2014-10-02T06:35:00,3,28220350,192787
OK,45,45,686,45,2014-10-02T06:40:00,2,28220784,192787
OK,68,29,686,68,2014-10-02T06:45:00,2,28221233,192787
OK,90,22,686,90,2014-10-02T07:00:00,0,28221900,192787
OK,80,25,686,80,2014-10-02T07:05:00,2,28222045,192787
OK,80,25,686,80,2014-10-02T07:10:00,2,28222494,192787
OK,71,28,686,71,2014-10-02T07:15:00,0,28222943,192787
OK,71,28,686,71,2014-10-02T07:20:00,0,28223374,192787
OK,68,29,686,68,2014-10-02T07:25:00,4,28223809,192787
OK,69,29,686,69,2014-10-02T07:30:00,1,28224244,192787
OK,63,32,686,63,2014-10-02T07:35:00,5,28224612,192787
OK,46,44,686,46,2014-10-02T07:40:00,0,28225061,192787
OK,46,44,686,46,2014-10-02T07:45:00,0,28225471,192787
OK,44,46,686,44,2014-10-02T07:50:00,3,28225832,192787
OK,44,46,686,44,2014-10-02T07:55:00,0,28226281,192787
OK,44,46,686,44,2014-10-02T08:00:00,0,28226722,192787
OK,67,30,686,67,2014-10-02T08:05:00,4,28227171,192787
OK,65,31,686,65,2014-10-02T08:10:00,0,28227586,192787
OK,65,31,686,65,2014-10-02T08:15:00,0,28228035,192787
OK,65,31,686,65,2014-10-02T08:20:00,0,28228394,192787
OK,70,29,686,70,2014-10-02T08:25:00,0,28228843,192787
OK,70,29,686,70,2014-10-02T08:30:00,0,28229253,192787
OK,67,30,686,67,2014-10-02T08:35:00,2,28229702,192787
OK,63,32,686,63,2014-10-02T08:40:00,0,28230052,192787
OK,63,32,686,63,2014-10-02T08:45:00,0,28230501,192787
OK,64,31,686,64,2014-10-02T08:50:00,4,28230867,192787
OK,58,35,686,58,2014-10-02T08:55:00,1,28231314,192787
OK,56,36,686,56,2014-10-02T09:00:00,1,28231739,192787
OK,56,36,686,56,2014-10-02T09:05:00,0,28232181,192787
OK,85,23,686,85,2014-10-02T09:15:00,1,28232530,192787
OK,85,23,686,85,2014-10-02T09:20:00,0,28232979,192787
OK,50,40,686,50,2014-10-02T09:25:00,2,28233428,192787
OK,34,59,686,34,2014-10-02T09:30:00,1,28233852,192787
OK,50,40,686,50,2014-10-02T09:35:00,5,28234288,192787
OK,50,40,686,50,2014-10-02T09:40:00,3,28234634,192787
OK,62,32,686,62,2014-10-02T09:45:00,1,28235083,192787
OK,62,32,686,62,2014-10-02T09:50:00,0,28235510,192787
OK,62,32,686,62,2014-10-02T09:55:00,0,28235959,192787
OK,62,32,686,62,2014-10-02T10:00:00,0,28236402,192787
OK,62,32,686,62,2014-10-02T10:05:00,0,28236849,192787
OK,62,32,686,62,2014-10-02T10:10:00,0,28237251,192787
OK,62,32,686,62,2014-10-02T10:15:00,0,28237699,192787
OK,62,32,686,62,2014-10-02T10:20:00,0,28238148,192787
OK,62,32,686,62,2014-10-02T10:25:00,0,28238595,192787
OK,62,32,686,62,2014-10-02T10:30:00,0,28239036,192787
OK,62,32,686,62,2014-10-02T10:35:00,0,28239485,192787
OK,62,32,686,62,2014-10-02T10:40:00,0,28239915,192787
OK,43,47,686,43,2014-10-02T10:45:00,2,28240364,192787
OK,49,41,686,49,2014-10-02T10:50:00,1,28240808,192787
OK,69,29,686,69,2014-10-02T10:55:00,1,28241257,192787
OK,69,29,686,69,2014-10-02T11:00:00,0,28241689,192787
OK,69,29,686,69,2014-10-02T11:05:00,0,28242137,192787
OK,35,58,686,35,2014-10-02T11:10:00,1,28242533,192787
OK,43,47,686,43,2014-10-02T11:15:00,2,28242982,192787
OK,52,39,686,52,2014-10-02T11:20:00,1,28243431,192787
OK,52,39,686,52,2014-10-02T11:25:00,0,28243756,192787
OK,52,39,686,52,2014-10-02T11:30:00,0,28244194,192787
OK,39,52,686,39,2014-10-02T11:35:00,3,28244623,192787
OK,63,32,686,63,2014-10-02T11:40:00,0,28245072,192787
OK,63,32,686,63,2014-10-02T11:45:00,0,28245521,192787
OK,81,25,686,81,2014-10-02T11:50:00,2,28245927,192787
OK,75,27,686,75,2014-10-02T11:55:00,2,28246376,192787
OK,48,42,686,48,2014-10-02T12:00:00,3,28246813,192787
OK,47,43,686,47,2014-10-02T12:05:00,2,28247261,192787
OK,47,43,686,47,2014-10-02T12:10:00,0,28247708,192787
OK,75,27,686,75,2014-10-02T12:15:00,0,28248138,192787
OK,75,27,686,75,2014-10-02T12:20:00,0,28248587,192787
OK,67,30,686,67,2014-10-02T12:25:00,1,28249034,192787
OK,67,30,686,67,2014-10-02T12:30:00,0,28249462,192787
OK,52,39,686,52,2014-10-02T12:35:00,0,28249906,192787
OK,52,39,686,52,2014-10-02T12:40:00,0,28250290,192787
OK,46,44,686,46,2014-10-02T12:45:00,1,28250723,192787
OK,82,24,686,82,2014-10-02T13:20:00,1,28251583,192787
OK,35,58,686,35,2014-10-02T13:30:00,1,28252048,192787
OK,35,58,686,35,2014-10-02T13:35:00,1,28252185,192787
OK,35,58,686,35,2014-10-02T13:40:00,0,28252632,192787
OK,67,30,686,67,2014-10-02T13:45:00,1,28253074,192787
OK,63,32,686,63,2014-10-02T13:50:00,1,28253491,192787
OK,63,32,686,63,2014-10-02T13:55:00,0,28253940,192787
OK,36,56,686,36,2014-10-02T14:10:00,3,28254671,192787
OK,60,33,686,60,2014-10-02T14:15:00,1,28254794,192787
OK,60,33,686,60,2014-10-02T14:20:00,0,28255243,192787
OK,60,33,686,60,2014-10-02T14:25:00,0,28255692,192787
OK,80,25,686,80,2014-10-02T14:30:00,1,28256120,192787
OK,80,25,686,80,2014-10-02T14:35:00,1,28256569,192787
OK,70,29,686,70,2014-10-02T14:40:00,1,28256997,192787
OK,70,29,686,70,2014-10-02T14:45:00,0,28257446,192787
OK,34,59,686,34,2014-10-02T14:50:00,1,28257887,192787
OK,38,53,686,38,2014-10-02T14:55:00,2,28258335,192787
OK,43,47,686,43,2014-10-02T15:00:00,1,28258768,192787
OK,70,29,686,70,2014-10-02T15:05:00,2,28259214,192787
OK,41,49,686,41,2014-10-02T15:10:00,3,28259662,192787
OK,41,49,686,41,2014-10-02T15:15:00,3,28260110,192787
OK,47,43,686,47,2014-10-02T15:20:00,0,28260543,192787
OK,47,43,686,47,2014-10-02T15:25:00,0,28260991,192787
OK,51,39,686,51,2014-10-02T15:35:00,1,28261795,192787
OK,51,39,686,51,2014-10-02T15:40:00,1,28262244,192787
OK,51,39,686,51,2014-10-02T15:45:00,0,28262691,192787
OK,51,39,686,51,2014-10-02T15:50:00,0,28263137,192787
OK,51,39,686,51,2014-10-02T15:55:00,0,28263575,192787
OK,51,39,686,51,2014-10-02T16:00:00,0,28264010,192787